Location: Unspecified
(0.0000°N, 0.0000°E)
Time: 17:20:03
(UTC+00:00)

Kosmos-2213 - Pass Details

Date: 22 November 2025
Orbit: 1410 x 1414 km, 82.6° (Epoch: 04 December)

Event Time Altitude Azimuth Distance (km) Brightness Sun altitude
Rises 04:23:47 0° 200° (SSW) 4,484 10.0 -19.3°
Reaches altitude 10° 04:26:49 10° 207° (SSW) 3,507 9.3 -18.6°
Maximum altitude 04:34:27 40° 273° (W) 1,973 7.6 -16.8°
Drops below altitude 10° 04:42:06 10° 340° (NNW) 3,499 9.0 -15.0°
Sets 04:45:10 0° 347° (NNW) 4,473 9.6 -14.3°
